Weather History for KBWD - October, 2012

Change the Weather History Date:

Wednesday, October 24, 2012

  Actual Average (KABI) Record (KABI)
Temperature  
Mean Temperature 77 °F 63 °F  
Max Temperature 86 °F 75 °F 92 °F (1933)
Min Temperature 68 °F 52 °F 32 °F (1929)
Degree Days  
Heating Degree Days 0 4  
Month to date heating degree days 57  
Since 1 July heating degree days 68  
Cooling Degree Days 12 2  
Month to date cooling degree days 103  
Year to date cooling degree days 2374  
Growing Degree Days 27 (Base 50)    
Moisture  
Dew Point 63 °F    
Average Humidity 70    
Maximum Humidity 94    
Minimum Humidity 45    
Precipitation  
Precipitation 0.00 in 0.10 in 1.98 in (1947)
Month to date precipitation 2.38  
Year to date precipitation 21.58  
Sea Level Pressure  
Sea Level Pressure 29.91 in    
Wind  
Wind Speed 11 mph (SSE)    
Max Wind Speed 18 mph    
Max Gust Speed 23 mph    
Visibility 10 miles    
Events      
T = Trace of Precipitation, MM = Missing Value Source: NWS Daily Summary

Daily Weather History Graph

Daily Weather History Graph

Search for Another Location

Airport or City:

Trip Planner

Search our weather history database for the weather conditions in past years. The results will help you decide how hot, cold, wet, or windy it might be!

Date:

Astronomy

Oct. 24, 2012 Rise Set
Actual Time 7:46 AM CDT 6:53 PM CDT
Civil Twilight 7:21 AM CDT 7:18 PM CDT
Nautical Twilight 6:52 AM CDT 7:46 PM CDT
Astronomical Twilight 6:24 AM CDT 8:14 PM CDT
Moon 3:55 PM CDT (10/24) 3:00 AM CDT (10/24)
Length of Visible Light 11h 56m
Length of Day
11h 07m
Waxing Gibbous, 76% of the Moon is Illuminated
Oct 24
Waxing Gibbous
Oct 29
Full
Nov 6
Last Quarter
Nov 13
New
Nov 20
First Quarter

Hourly Weather History & Observations

Time (CDT) Temp. Heat Index Dew Point Humidity Pressure Visibility Wind Dir Wind Speed Gust Speed Precip Events Conditions
12:35 AM 68.0 °F - 66.2 °F 94% 29.95 in 10.0 mi SSE 6.9 mph - N/A   Overcast
12:55 AM 69.8 °F - 66.2 °F 88% 29.94 in 10.0 mi SSE 6.9 mph - N/A   Overcast
1:15 AM 68.0 °F - 66.2 °F 94% 29.95 in 10.0 mi SSE 8.1 mph - N/A   Overcast
1:35 AM 68.0 °F - 66.2 °F 94% 29.95 in 10.0 mi SSE 6.9 mph - N/A   Mostly Cloudy
1:55 AM 68.0 °F - 66.2 °F 94% 29.95 in 10.0 mi SE 8.1 mph - N/A   Scattered Clouds
2:35 AM 68.0 °F - 64.4 °F 88% 29.95 in 10.0 mi SSE 6.9 mph - N/A   Clear
2:55 AM 68.0 °F - 64.4 °F 88% 29.94 in 10.0 mi SE 6.9 mph - N/A   Clear
3:15 AM 68.0 °F - 64.4 °F 88% 29.94 in 10.0 mi SE 8.1 mph - N/A   Clear
3:35 AM 68.0 °F - 64.4 °F 88% 29.93 in 10.0 mi SSE 9.2 mph - N/A   Clear
3:55 AM 68.0 °F - 66.2 °F 94% 29.93 in 10.0 mi SSE 9.2 mph - N/A   Scattered Clouds
4:15 AM 68.0 °F - 66.2 °F 94% 29.92 in 10.0 mi SSE 11.5 mph - N/A   Overcast
4:35 AM 68.0 °F - 66.2 °F 94% 29.92 in 10.0 mi SSE 9.2 mph - N/A   Overcast
4:55 AM 68.0 °F - 66.2 °F 94% 29.92 in 10.0 mi SE 8.1 mph - N/A   Overcast
5:15 AM 68.0 °F - 66.2 °F 94% 29.92 in 10.0 mi SSE 6.9 mph - N/A   Overcast
5:35 AM 68.0 °F - 66.2 °F 94% 29.92 in 10.0 mi North - - N/A   Overcast
5:55 AM 68.0 °F - 66.2 °F 94% 29.92 in 10.0 mi North - - N/A   Overcast
6:15 AM 68.0 °F - 66.2 °F 94% 29.92 in 10.0 mi North - - N/A   Overcast
6:35 AM 69.8 °F - 64.4 °F 83% 29.93 in 10.0 mi SSE 9.2 mph - N/A   Overcast
6:55 AM 69.8 °F - 64.4 °F 83% 29.94 in 10.0 mi SSE 10.4 mph - N/A   Overcast
7:15 AM 68.0 °F - 64.4 °F 88% 29.94 in 10.0 mi SSE 9.2 mph - N/A   Overcast
7:55 AM 68.0 °F - 64.4 °F 88% 29.95 in 10.0 mi SSE 10.4 mph - N/A   Overcast
8:15 AM 68.0 °F - 64.4 °F 88% 29.95 in 10.0 mi SSE 11.5 mph - N/A   Overcast
8:35 AM 69.8 °F - 64.4 °F 83% 29.96 in 10.0 mi South 11.5 mph 17.3 mph N/A   Overcast
8:55 AM 69.8 °F - 66.2 °F 88% 29.96 in 10.0 mi South 9.2 mph - N/A   Overcast
9:15 AM 71.6 °F - 66.2 °F 83% 29.97 in 10.0 mi SSE 10.4 mph - N/A   Overcast
9:35 AM 71.6 °F - 66.2 °F 83% 29.97 in 10.0 mi SSE 9.2 mph - N/A   Overcast
9:55 AM 71.6 °F - 66.2 °F 83% 29.97 in 10.0 mi SSE 12.7 mph 17.3 mph N/A   Overcast
10:15 AM 73.4 °F - 66.2 °F 78% 29.97 in 10.0 mi SSE 13.8 mph 19.6 mph N/A   Overcast
10:35 AM 73.4 °F - 66.2 °F 78% 29.98 in 10.0 mi SSE 13.8 mph 19.6 mph N/A   Overcast
10:55 AM 73.4 °F - 66.2 °F 78% 29.97 in 10.0 mi South 11.5 mph - N/A   Overcast
11:15 AM 75.2 °F - 66.2 °F 73% 29.97 in 10.0 mi South 11.5 mph 17.3 mph N/A   Overcast
11:35 AM 75.2 °F - 64.4 °F 69% 29.97 in 10.0 mi South 16.1 mph 19.6 mph N/A   Overcast
11:55 AM 77.0 °F - 64.4 °F 65% 29.96 in 10.0 mi South 17.3 mph 23.0 mph N/A   Overcast
12:15 PM 77.0 °F - 64.4 °F 65% 29.95 in 10.0 mi SSE 17.3 mph 23.0 mph N/A   Overcast
12:35 PM 78.8 °F - 64.4 °F 61% 29.94 in 10.0 mi South 17.3 mph 21.9 mph N/A   Mostly Cloudy
12:55 PM 80.6 °F 82.3 °F 64.4 °F 58% 29.94 in 10.0 mi South 13.8 mph 23.0 mph N/A   Mostly Cloudy
1:15 PM 80.6 °F 82.3 °F 64.4 °F 58% 29.93 in 10.0 mi SSE 18.4 mph - N/A   Mostly Cloudy
1:35 PM 82.4 °F 83.4 °F 62.6 °F 51% 29.92 in 10.0 mi South 12.7 mph 23.0 mph N/A   Partly Cloudy
2:15 PM 80.6 °F 81.8 °F 62.6 °F 54% 29.90 in 10.0 mi SSE 11.5 mph 20.7 mph N/A   Clear
2:35 PM 82.4 °F 83.4 °F 62.6 °F 51% 29.89 in 10.0 mi SSE 15.0 mph 19.6 mph N/A   Clear
2:55 PM 82.4 °F 83.4 °F 62.6 °F 51% 29.88 in 10.0 mi South 12.7 mph - N/A   Clear
3:15 PM 82.4 °F 83.4 °F 62.6 °F 51% 29.87 in 10.0 mi South 11.5 mph 17.3 mph N/A   Clear
3:35 PM 82.4 °F 82.9 °F 60.8 °F 48% 29.86 in 10.0 mi South 17.3 mph - N/A   Clear
4:15 PM 84.2 °F 85.0 °F 62.6 °F 48% 29.85 in 10.0 mi South 15.0 mph 21.9 mph N/A   Clear
4:35 PM 86.0 °F 86.6 °F 62.6 °F 45% 29.84 in 10.0 mi SSE 18.4 mph 21.9 mph N/A   Clear
4:55 PM 84.2 °F 84.4 °F 60.8 °F 45% 29.84 in 10.0 mi SSE 13.8 mph 20.7 mph N/A   Clear
5:15 PM 84.2 °F 85.0 °F 62.6 °F 48% 29.84 in 10.0 mi South 16.1 mph - N/A   Clear
5:35 PM 84.2 °F 85.0 °F 62.6 °F 48% 29.83 in 10.0 mi South 17.3 mph 21.9 mph N/A   Clear
5:55 PM 84.2 °F 84.4 °F 60.8 °F 45% 29.84 in 10.0 mi SSE 15.0 mph 20.7 mph N/A   Clear
6:15 PM 82.4 °F 82.9 °F 60.8 °F 48% 29.84 in 10.0 mi South 15.0 mph 23.0 mph N/A   Clear
6:35 PM 80.6 °F 81.1 °F 59.0 °F 48% 29.84 in 10.0 mi SSE 16.1 mph 19.6 mph N/A   Clear
6:55 PM 80.6 °F 81.1 °F 59.0 °F 48% 29.84 in 10.0 mi SSE 13.8 mph 19.6 mph N/A   Clear
7:15 PM 78.8 °F - 57.2 °F 47% 29.84 in 10.0 mi SSE 13.8 mph 18.4 mph N/A   Clear
7:35 PM 77.0 °F - 57.2 °F 50% 29.84 in 10.0 mi SSE 12.7 mph 18.4 mph N/A   Clear
7:55 PM 77.0 °F - 57.2 °F 50% 29.85 in 10.0 mi SSE 13.8 mph 21.9 mph N/A   Clear
8:15 PM 77.0 °F - 59.0 °F 54% 29.85 in 10.0 mi SSE 12.7 mph 19.6 mph N/A   Clear
8:35 PM 75.2 °F - 59.0 °F 57% 29.85 in 10.0 mi SSE 12.7 mph - N/A   Clear
8:55 PM 75.2 °F - 59.0 °F 57% 29.86 in 10.0 mi SSE 16.1 mph 20.7 mph N/A   Clear
9:15 PM 75.2 °F - 59.0 °F 57% 29.85 in 10.0 mi SE 13.8 mph 19.6 mph N/A   Clear
9:35 PM 75.2 °F - 59.0 °F 57% 29.85 in 10.0 mi SSE 13.8 mph 19.6 mph N/A   Clear
9:55 PM 73.4 °F - 59.0 °F 61% 29.86 in 10.0 mi SSE 12.7 mph 19.6 mph N/A   Clear
10:15 PM 73.4 °F - 59.0 °F 61% 29.85 in 10.0 mi SSE 12.7 mph 18.4 mph N/A   Clear
10:35 PM 73.4 °F - 59.0 °F 61% 29.86 in 10.0 mi SSE 13.8 mph - N/A   Scattered Clouds
10:55 PM 71.6 °F - 59.0 °F 64% 29.86 in 10.0 mi SSE 10.4 mph 17.3 mph N/A   Overcast
11:15 PM 71.6 °F - 59.0 °F 64% 29.86 in 10.0 mi South 9.2 mph - N/A   Overcast